Content
SEND FEEDBACK

Daily
Averages
Monthly
Summary
France

LE HAVRE, FRANCE


Home > Europe > France
Elevation: 338 feet     Latitude: 49 31N     Longitude: 000 04E

WEATHER
 
SELECT A DAY
Number of Records: 176,732;   Date Range: 3/4/97 - 8/10/14
 
SHARE

PRINT THIS DATA

[ ← Previous Day ]
WEATHER ALMANAC - MAY 19, 2013
[ Next Day → ]
[ °C ]   °F
Weather ElementAverageHighLow
Temperature50.6 °F53.6 °F (12:30 pm)48.2 °F (12:30 am)
Dewpoint48.7 °F51.8 °F (4:30 pm)46.4 °F (12:30 am)
Humidity93.7 %100 % (8:30 am)87 % (3:30 am)
Barometer29.80 in29.92 in (10:00 pm)29.71 in (12:30 am)
Wind Speed6.7 mph11.5 mph (12:30 am)
Weather ElementAverage
Visibility2.8 mi
Wind DirectionSE (138.7 °)

Weather ElementTotal
Precipitation---
Heating Degree Days14.1 (Base 65)
Growing Degree Days0.9 (Base 50)
Averaged from 47 records on May 19, 2013
WEATHER CONDITIONS BREAKOUT
WIND DIRECTION BREAKOUT
WEATHER BY HOUR - MAY 19, 2013
[ °C ]   °F
Local TimeTemperatureDewpointHumidityBarometerVisibilityWind DirectionWind SpeedGust SpeedPrecipitationEventsConditions
12:30 AM48.2 °F46.4 °F93 %29.71 in3.7 miNNE (20°)11.5 mphRainLight Rain
1:00 AM48.2 °F46.4 °F93 %29.71 in1.5 miNorth (360°)11.5 mphRainLight Rain
1:30 AM48.2 °F46.4 °F93 %29.71 inNorth (360°)11.5 mphRainLight Rain
2:00 AM48.2 °F46.4 °F93 %29.71 in1.3 miNorth (10°)8.1 mphOvercast
2:30 AM48.2 °F46.4 °F93 %29.71 inNNE (30°)3.5 mphOvercast
3:00 AM48.2 °F46.4 °F93 %29.71 inNE (50°)4.6 mphOvercast
3:30 AM50.0 °F46.4 °F87 %29.71 inEast (80°)8.1 mphOvercast
4:00 AM50.0 °F46.4 °F87 %29.71 in3.1 miEast (90°)8.1 mphMist
4:30 AM50.0 °F48.2 °F94 %29.71 in3.1 miEast (90°)8.1 mphMist
5:00 AM50.0 °F48.2 °F94 %29.71 inEast (90°)8.1 mphMist
5:30 AM50.0 °F48.2 °F94 %29.71 inEast (100°)6.9 mphMist
6:00 AM50.0 °F46.4 °F87 %29.71 inCalmMist
6:30 AM50.0 °F46.4 °F87 %29.71 inVariable1.2 mphMist
7:00 AM50.0 °F48.2 °F94 %29.74 inENE (70°)3.5 mphMist
7:30 AM50.0 °F48.2 °F94 %29.74 inENE (70°)4.6 mphMist
8:00 AM50.0 °F48.2 °F94 %29.77 inNE (50°)5.8 mphRainLight Rain
8:30 AM50.0 °F50.0 °F100 %29.77 in3.1 miNE (50°)5.8 mphRainLight Rain
9:00 AM50.0 °F50.0 °F100 %29.77 in3.1 miENE (60°)8.1 mphRainLight Rain
9:30 AM51.8 °F50.0 °F94 %29.77 in3.1 miENE (70°)5.8 mphRainLight Rain
10:00 AM51.8 °F50.0 °F94 %29.80 in3.1 miENE (70°)6.9 mphRainLight Rain
10:30 AM51.8 °F50.0 °F94 %29.80 inEast (80°)5.8 mphRainLight Rain
11:00 AM51.8 °F50.0 °F94 %29.80 in3.7 miEast (80°)4.6 mphRainLight Rain
11:30 AM51.8 °F50.0 °F94 %29.80 in3.7 miNE (50°)4.6 mphRainLight Rain
12:00 PM51.8 °F50.0 °F94 %29.80 in4.3 miNE (40°)5.8 mphRainLight Rain
12:30 PM53.6 °F50.0 °F88 %29.80 in6.2 miVariable3.5 mphRainLight Rain
1:00 PM51.8 °F50.0 °F94 %29.83 in3.7 miNorth (350°)6.9 mphRainLight Rain
1:30 PM53.6 °F50.0 °F88 %29.83 in5.6 miNorth (350°)6.9 mphRainLight Rain
2:00 PM51.8 °F50.0 °F94 %29.83 in6.2 miNorth (350°)8.1 mphOvercast
2:30 PM51.8 °F50.0 °F94 %29.83 inNorth (360°)6.9 mphRainLight Rain
3:00 PM51.8 °F50.0 °F94 %29.83 inNorth (360°)8.1 mphRainLight Rain
3:30 PM51.8 °F50.0 °F94 %29.86 in1.1 miNorth (10°)9.2 mphRainLight Rain
4:00 PM51.8 °F50.0 °F94 %29.86 in2.2 miNorth (360°)8.1 mphRainLight Rain
4:30 PM51.8 °F51.8 °F100 %29.86 in3.7 miNorth (10°)8.1 mphRainLight Rain
5:00 PM51.8 °F50.0 °F94 %29.86 in1.6 miNNE (20°)5.8 mphRainLight Rain
5:30 PM51.8 °F50.0 °F94 %29.86 in1.1 miNorth (360°)6.9 mphRainLight Rain
6:00 PM51.8 °F50.0 °F94 %29.86 in1.4 miNNE (30°)5.8 mphRainLight Rain
6:30 PM50.0 °F50.0 °F100 %29.89 in1.4 miNNE (20°)5.8 mphRainLight Rain
7:00 PM51.8 °F50.0 °F94 %29.86 inNorth (10°)4.6 mphRainLight Rain
7:30 PM50.0 °F50.0 °F100 %29.89 in1.4 miNorth (10°)8.1 mphRainLight Rain
8:00 PM50.0 °F48.2 °F94 %29.89 inVariable2.3 mphRainLight Rain
8:30 PM50.0 °F48.2 °F94 %29.89 in3.1 miNorth (10°)4.6 mphRainLight Rain
9:00 PM50.0 °F48.2 °F94 %29.89 in1.1 miNNW (330°)5.8 mphMist
9:30 PM50.0 °F48.2 °F94 %29.89 in1.4 miNNW (330°)6.9 mphMist
10:00 PM50.0 °F48.2 °F94 %29.92 in1.8 miNNW (330°)6.9 mphMist
10:30 PM50.0 °F48.2 °F94 %29.92 inNW (320°)10.4 mphMostly Cloudy
11:00 PM50.0 °F48.2 °F94 %29.92 in1.6 miNW (320°)10.4 mphOvercast
11:30 PM50.0 °F48.2 °F94 %29.92 in1.9 miNW (310°)10.4 mphMostly Cloudy
Hourly data recorded from LFOH, located miles away from Le Havre, France







STORIES FROM OUR PARTNERS